Arlington, VA

3:24 AM EST on February 24, 2017 (GMT -0500)
Ronald Reagan Washington National

Weather History for KDCA - November, 2013

Change the Weather History Date:

Wednesday, November 20, 2013

  Actual Average Record
Temperature  
Mean Temperature 43 °F 48 °F  
Max Temperature 49 °F 56 °F 79 °F (1942)
Min Temperature 36 °F 40 °F 20 °F (1901)
Degree Days  
Heating Degree Days 22 17  
Month to date heating degree days 284 277  
Since 1 July heating degree days 449 506  
Cooling Degree Days 0 0  
Month to date cooling degree days 2 0  
Year to date cooling degree days 1719 1547  
Moisture  
Dew Point 24 °F    
Average Humidity 55    
Maximum Humidity 70    
Minimum Humidity 39    
Precipitation  
Precipitation 0.00 in 0.11 in 1.83 in (1952)
Month to date precipitation 0.72 2.10  
Year to date precipitation 36.51 35.62  
Snow  
Snow 0.00 in 0.00 in 0.50 in (1961)
Month to date snowfall 0.0 0.2  
Since 1 July snowfall 0.0 0.2  
Snow Depth 0.00 in    
Sea Level Pressure  
Sea Level Pressure 30.52 in    
Wind  
Wind Speed 9 mph (NE)    
Max Wind Speed 16 mph    
Max Gust Speed 18 mph    
Visibility 10 miles    
Events      
T = Trace of Precipitation, MM = Missing Value Source: NWS Daily Summary

Daily Weather History Graph

Daily Weather History Graph

Search for Another Location

Airport or City:

Trip Planner

Search our weather history database for the weather conditions in past years. The results will help you decide how hot, cold, wet, or windy it might be!

Date:

Astronomy

Nov. 20, 2013 Rise Set
Actual Time 6:56 AM EST 4:50 PM EST
Civil Twilight 6:27 AM EST 5:19 PM EST
Nautical Twilight 5:55 AM EST 5:52 PM EST
Astronomical Twilight 5:23 AM EST 6:23 PM EST
Moon 7:32 PM EST (11/20) 9:20 AM EST (11/20)
Length of Visible Light 10h 52m
Length of Day
9h 54m
Waning Gibbous, 91% of the Moon is Illuminated
Nov 20
Waning Gibbous
Nov 25
Last Quarter
Dec 2
New
Dec 9
First Quarter
Dec 17
Full

Hourly Weather History & Observations

Time (EST) Temp. Windchill Dew Point Humidity Pressure Visibility Wind Dir Wind Speed Gust Speed Precip Events Conditions
12:52 AM 39.9 °F 32.5 °F 21.9 °F 49% 30.40 in 10.0 mi NNE 12.7 mph - N/A   Overcast
1:52 AM 37.9 °F 30.5 °F 21.9 °F 53% 30.42 in 10.0 mi North 11.5 mph - N/A   Overcast
2:52 AM 37.9 °F 30.9 °F 21.9 °F 53% 30.43 in 10.0 mi North 10.4 mph - N/A   Mostly Cloudy
3:52 AM 37.9 °F 32.1 °F 23.0 °F 55% 30.46 in 10.0 mi North 8.1 mph - N/A   Overcast
4:52 AM 37.9 °F 30.9 °F 21.9 °F 53% 30.47 in 10.0 mi North 10.4 mph - N/A   Mostly Cloudy
5:52 AM 37.9 °F 32.7 °F 21.9 °F 53% 30.49 in 10.0 mi North 6.9 mph - N/A   Mostly Cloudy
6:52 AM 37.9 °F 30.5 °F 21.9 °F 53% 30.51 in 10.0 mi NNE 11.5 mph - N/A   Mostly Cloudy
7:52 AM 37.9 °F 31.5 °F 23.0 °F 55% 30.53 in 10.0 mi NNE 9.2 mph - N/A   Mostly Cloudy
8:52 AM 37.9 °F 30.0 °F 23.0 °F 55% 30.56 in 10.0 mi NE 12.7 mph - N/A   Overcast
9:52 AM 41.0 °F 36.4 °F 24.1 °F 51% 30.58 in 10.0 mi NE 6.9 mph - N/A   Overcast
10:52 AM 42.1 °F 37.1 °F 24.1 °F 49% 30.58 in 10.0 mi ENE 8.1 mph - N/A   Overcast
11:52 AM 45.0 °F 40.6 °F 24.1 °F 44% 30.55 in 10.0 mi NE 8.1 mph - N/A   Mostly Cloudy
12:52 PM 46.9 °F - 24.1 °F 41% 30.53 in 10.0 mi NE 6.9 mph - N/A   Scattered Clouds
1:52 PM 48.9 °F - 24.1 °F 38% 30.51 in 10.0 mi NE 9.2 mph - N/A   Partly Cloudy
2:52 PM 48.0 °F - 26.1 °F 42% 30.50 in 10.0 mi East 6.9 mph - N/A   Partly Cloudy
3:52 PM 46.9 °F - 27.0 °F 46% 30.51 in 10.0 mi East 10.4 mph - N/A   Partly Cloudy
4:52 PM 44.1 °F 38.1 °F 28.0 °F 53% 30.52 in 10.0 mi ENE 11.5 mph - N/A   Scattered Clouds
5:52 PM 42.1 °F 37.7 °F 26.1 °F 53% 30.54 in 10.0 mi ENE 6.9 mph - N/A   Mostly Cloudy
6:52 PM 42.1 °F 38.4 °F 25.0 °F 51% 30.55 in 10.0 mi ENE 5.8 mph - N/A   Mostly Cloudy
7:52 PM 41.0 °F 36.4 °F 25.0 °F 53% 30.55 in 10.0 mi ENE 6.9 mph - N/A   Mostly Cloudy
8:52 PM 39.9 °F 35.8 °F 27.0 °F 60% 30.56 in 10.0 mi ENE 5.8 mph - N/A   Mostly Cloudy
9:52 PM 39.0 °F 34.8 °F 27.0 °F 62% 30.57 in 10.0 mi ENE 5.8 mph - N/A   Mostly Cloudy
10:52 PM 37.9 °F 33.5 °F 28.9 °F 70% 30.57 in 10.0 mi ENE 5.8 mph - N/A   Scattered Clouds
11:52 PM 37.9 °F 32.7 °F 28.9 °F 70% 30.57 in 10.0 mi NE 6.9 mph - N/A   Clear